Location: Isle of Man Observatory
(54.1776°N, 4.6264°W)
Time: 15:00:07
(UTC+02:00)

ARIANE 6 FM1 Upper Stage - Pass Details

Date: 17 April 2026
Orbit: 526 x 601 km, 62.0° (Epoch: 19 May)

Event Time Altitude Azimuth Distance (km) Brightness Sun altitude
Rises 01:12:09 0° 300° (WNW) 2,692 6.8 -23.9°
Reaches altitude 10° 01:14:33 10° 311° (NW) 1,791 6.0 -24.0°
Maximum altitude 01:18:09 31° 15° (NNE) 954 4.3 -24.2°
Enters shadow 01:20:23 18° 66° (ENE) 1,337 4.6 -24.3°
